Location: Caltech
(34.1382°N, 118.1253°W)
Time: 02:11:58
(UTC-07:00)

Transit 2A - Visible Passes

Search period start: 29 March 2017 00:00
Search period end: 08 April 2017 00:00
Orbit: 602 x 957 km, 66.7° (Epoch: 27 March)

Date Brightness Start Highest point End Pass type
(mag) Time Alt. Az. Time Alt. Az. Time Alt. Az.
29 Mar 5.7 05:23:06 16° SSW 05:27:05 85° ESE 05:31:39 10° NNE visible
30 Mar 6.4 04:50:54 29° S 04:53:07 52° ESE 04:57:34 10° NE visible
31 Mar 7.1 04:18:30 31° SE 04:19:11 32° ESE 04:23:17 10° NE visible
31 Mar 7.0 05:59:03 12° WSW 06:02:18 22° WNW 06:05:51 10° N visible
01 Apr 8.0 03:45:59 20° E 03:45:59 20° E 03:48:42 10° ENE visible
01 Apr 6.5 05:26:31 26° W 05:28:12 34° WNW 05:32:19 10° N visible
02 Apr 8.7 03:13:21 10° E 03:13:21 10° E 03:13:27 10° E visible
02 Apr 5.8 04:53:52 52° WNW 04:54:09 53° WNW 04:58:35 10° NNE visible
03 Apr 6.1 04:21:07 56° NNE 04:21:07 56° NNE 04:24:41 10° NNE visible
04 Apr 7.4 03:48:18 30° NE 03:48:18 30° NE 03:50:38 10° NE visible
04 Apr 7.6 05:28:48 13° WNW 05:29:35 13° NW 05:31:44 10° NNW visible
05 Apr 8.4 03:15:23 16° NE 03:15:23 16° NE 03:16:24 10° NE visible
05 Apr 7.3 04:55:54 20° NW 04:55:54 20° NW 04:58:43 10° N visible
06 Apr 7.3 04:22:56 24° NNW 04:22:56 24° NNW 04:25:15 10° N visible
07 Apr 7.7 03:49:55 21° N 03:49:55 21° N 03:51:34 10° NNE visible
